Weather History for KMHV - August, 2013

Change the Weather History Date:

Thursday, August 8, 2013

  Actual Average Record
Temperature  
Mean Temperature 78 °F -  
Max Temperature 89 °F 99 °F 107 °F (1981)
Min Temperature 66 °F 70 °F 60 °F (1977)
Cooling Degree Days 12    
Growing Degree Days 28 (Base 50)    
Moisture  
Dew Point 37 °F    
Average Humidity 27    
Maximum Humidity 46    
Minimum Humidity 10    
Precipitation  
Precipitation 0.00 in - - ()
Sea Level Pressure  
Sea Level Pressure 29.97 in    
Wind  
Wind Speed 17 mph (WSW)    
Max Wind Speed 28 mph    
Max Gust Speed 36 mph    
Visibility 10 miles    
Events      
Averages and records for this station are not official NWS values.
T = Trace of Precipitation, MM = Missing Value Source: NWS Daily Summary

Daily Weather History Graph

Daily Weather History Graph

Search for Another Location

Airport or City:

Trip Planner

Search our weather history database for the weather conditions in past years. The results will help you decide how hot, cold, wet, or windy it might be!

Date:

Astronomy

Aug. 08, 2013 Rise Set
Actual Time 6:07 AM PDT 7:48 PM PDT
Civil Twilight 5:40 AM PDT 8:15 PM PDT
Nautical Twilight 5:07 AM PDT 8:48 PM PDT
Astronomical Twilight 4:32 AM PDT 9:23 PM PDT
Moon 7:52 AM PDT (8/8) 8:37 PM PDT (8/8)
Length of Visible Light 14h 35m
Length of Day
13h 40m
Waxing Crescent, 3% of the Moon is Illuminated
Aug 8
Waxing Crescent
Aug 14
First Quarter
Aug 20
Full
Aug 28
Last Quarter
Sep 5
New

Hourly Weather History & Observations

Time (PDT) Temp. Dew Point Humidity Pressure Visibility Wind Dir Wind Speed Gust Speed Precip Events Conditions
12:15 AM 71.6 °F 37.4 °F 29% 30.00 in 10.0 mi WSW 17.3 mph 26.5 mph N/A   Clear
12:35 AM 69.8 °F 37.4 °F 31% 30.00 in 10.0 mi WSW 19.6 mph 26.5 mph N/A   Clear
12:55 AM 69.8 °F 35.6 °F 28% 30.00 in 10.0 mi WSW 21.9 mph 27.6 mph N/A   Clear
1:15 AM 69.8 °F 35.6 °F 28% 30.00 in 10.0 mi WSW 18.4 mph 25.3 mph N/A   Clear
1:35 AM 69.8 °F 33.8 °F 27% 29.99 in 10.0 mi West 20.7 mph 24.2 mph N/A   Clear
1:55 AM 68.0 °F 37.4 °F 33% 29.99 in 10.0 mi West 17.3 mph 23.0 mph N/A   Clear
2:15 AM 68.0 °F 39.2 °F 35% 29.99 in 10.0 mi WSW 18.4 mph 23.0 mph N/A   Clear
2:35 AM 68.0 °F 35.6 °F 30% 29.99 in 10.0 mi West 23.0 mph 27.6 mph N/A   Clear
2:55 AM 68.0 °F 35.6 °F 30% 29.98 in 10.0 mi West 23.0 mph 29.9 mph N/A   Clear
3:15 AM 68.0 °F 39.2 °F 35% 29.97 in 10.0 mi West 27.6 mph 35.7 mph N/A   Clear
3:35 AM 66.2 °F 42.8 °F 43% 29.98 in 10.0 mi West 21.9 mph - N/A   Clear
3:55 AM 66.2 °F 42.8 °F 43% 29.98 in 10.0 mi West 20.7 mph 28.8 mph N/A   Clear
4:15 AM 66.2 °F 44.6 °F 46% 29.98 in 10.0 mi West 20.7 mph 27.6 mph N/A   Clear
4:35 AM 66.2 °F 44.6 °F 46% 29.98 in 10.0 mi West 20.7 mph 27.6 mph N/A   Clear
4:55 AM 66.2 °F 44.6 °F 46% 29.98 in 10.0 mi WSW 17.3 mph 21.9 mph N/A   Clear
5:15 AM 66.2 °F 44.6 °F 46% 29.98 in 10.0 mi West 18.4 mph 24.2 mph N/A   Unknown
5:35 AM 66.2 °F 44.6 °F 46% 29.98 in 10.0 mi WSW 16.1 mph 24.2 mph N/A   Unknown
5:55 AM 66.2 °F 44.6 °F 46% 29.99 in 10.0 mi West 17.3 mph 23.0 mph N/A   Clear
6:15 AM 66.2 °F 44.6 °F 46% 29.99 in 10.0 mi West 18.4 mph - N/A   Clear
6:35 AM 66.2 °F 44.6 °F 46% 30.00 in 10.0 mi WSW 8.1 mph - N/A   Clear
6:55 AM 68.0 °F 44.6 °F 43% 30.00 in 10.0 mi West 16.1 mph 23.0 mph N/A   Clear
7:15 AM 68.0 °F 42.8 °F 40% 30.00 in 10.0 mi West 12.7 mph 20.7 mph N/A   Clear
7:35 AM 68.0 °F 41.0 °F 37% 30.00 in 10.0 mi West 11.5 mph 19.6 mph N/A   Clear
7:55 AM 71.6 °F 41.0 °F 33% 30.00 in 10.0 mi West 11.5 mph - N/A   Clear
8:15 AM 71.6 °F 41.0 °F 33% 30.00 in 10.0 mi West 12.7 mph - N/A   Clear
8:35 AM 75.2 °F 37.4 °F 25% 30.00 in 10.0 mi North 6.9 mph - N/A   Clear
8:55 AM 75.2 °F 37.4 °F 25% 30.01 in 10.0 mi Calm Calm - N/A   Clear
9:15 AM 77.0 °F 37.4 °F 24% 30.00 in 10.0 mi West 9.2 mph - N/A   Clear
9:35 AM 77.0 °F 35.6 °F 22% 30.00 in 10.0 mi West 12.7 mph - N/A   Clear
9:55 AM 77.0 °F 33.8 °F 21% 30.00 in 10.0 mi West 15.0 mph 18.4 mph N/A   Clear
10:15 AM 78.8 °F 33.8 °F 20% 30.01 in 10.0 mi WSW 15.0 mph 20.7 mph N/A   Clear
10:35 AM 80.6 °F 32.0 °F 17% 30.01 in 10.0 mi West 12.7 mph 17.3 mph N/A   Clear
10:55 AM 80.6 °F 35.6 °F 20% 30.01 in 10.0 mi SW 9.2 mph 16.1 mph N/A   Clear
11:15 AM 80.6 °F 35.6 °F 20% 30.00 in 10.0 mi SW 10.4 mph 17.3 mph N/A   Clear
11:35 AM 82.4 °F 35.6 °F 19% 30.00 in 10.0 mi WSW 6.9 mph - N/A   Clear
11:55 AM 82.4 °F 35.6 °F 19% 29.99 in 10.0 mi SSW 5.8 mph - N/A   Clear
12:15 PM 84.2 °F 35.6 °F 18% 29.98 in 10.0 mi SSW 11.5 mph - N/A   Clear
12:35 PM 84.2 °F 30.2 °F 14% 29.98 in 10.0 mi SSW 16.1 mph 27.6 mph N/A   Clear
12:55 PM 86.0 °F 28.4 °F 12% 29.97 in 10.0 mi South 18.4 mph 24.2 mph N/A   Clear
1:15 PM 86.0 °F 26.6 °F 12% 29.97 in 10.0 mi South 16.1 mph 23.0 mph N/A   Clear
1:35 PM 86.0 °F 24.8 °F 11% 29.97 in 10.0 mi SSW 16.1 mph 24.2 mph N/A   Clear
1:55 PM 86.0 °F 24.8 °F 11% 29.96 in 10.0 mi SSW 13.8 mph 21.9 mph N/A   Clear
2:15 PM 87.8 °F 24.8 °F 10% 29.96 in 10.0 mi SW 17.3 mph 27.6 mph N/A   Clear
2:35 PM 87.8 °F 26.6 °F 11% 29.95 in 10.0 mi SSW 21.9 mph 31.1 mph N/A   Clear
2:55 PM 89.6 °F 26.6 °F 10% 29.95 in 10.0 mi South 17.3 mph 25.3 mph N/A   Clear
3:15 PM 87.8 °F 28.4 °F 12% 29.94 in 10.0 mi SW 17.3 mph 27.6 mph N/A   Clear
3:35 PM 87.8 °F 32.0 °F 14% 29.94 in 10.0 mi SSW 16.1 mph 19.6 mph N/A   Clear
3:55 PM 87.8 °F 33.8 °F 15% 29.93 in 10.0 mi SW 16.1 mph 31.1 mph N/A   Clear
4:15 PM 87.8 °F 33.8 °F 15% 29.93 in 10.0 mi WSW 11.5 mph 27.6 mph N/A   Clear
4:35 PM 86.0 °F 35.6 °F 17% 29.93 in 10.0 mi SW 10.4 mph 20.7 mph N/A   Clear
4:55 PM 86.0 °F 35.6 °F 17% 29.93 in 10.0 mi West 13.8 mph 18.4 mph N/A   Clear
5:15 PM 86.0 °F 35.6 °F 17% 29.93 in 10.0 mi West 16.1 mph 26.5 mph N/A   Clear
5:35 PM 86.0 °F 35.6 °F 17% 29.92 in 10.0 mi West 16.1 mph 21.9 mph N/A   Clear
5:55 PM 84.2 °F 35.6 °F 18% 29.92 in 10.0 mi West 18.4 mph 23.0 mph N/A   Clear
6:15 PM 82.4 °F 35.6 °F 19% 29.92 in 10.0 mi West 16.1 mph - N/A   Clear
6:35 PM 82.4 °F 39.2 °F 21% 29.92 in 10.0 mi West 19.6 mph 25.3 mph N/A   Clear
6:55 PM 80.6 °F 41.0 °F 24% 29.92 in 10.0 mi West 19.6 mph 23.0 mph N/A   Clear
7:15 PM 78.8 °F 41.0 °F 26% 29.93 in 10.0 mi West 12.7 mph 25.3 mph N/A   Clear
7:35 PM 77.0 °F 41.0 °F 28% 29.93 in 10.0 mi West 15.0 mph 24.2 mph N/A   Clear
7:55 PM 77.0 °F 39.2 °F 26% 29.93 in 10.0 mi West 12.7 mph 26.5 mph N/A   Clear
8:15 PM 75.2 °F 39.2 °F 27% 29.93 in 10.0 mi West 19.6 mph 24.2 mph N/A   Clear
8:35 PM 75.2 °F 39.2 °F 27% 29.94 in 10.0 mi West 15.0 mph 21.9 mph N/A   Clear
8:55 PM 73.4 °F 41.0 °F 31% 29.94 in 10.0 mi West 18.4 mph 23.0 mph N/A   Clear
9:15 PM 73.4 °F 41.0 °F 31% 29.95 in 10.0 mi West 11.5 mph - N/A   Clear
9:35 PM 73.4 °F 41.0 °F 31% 29.95 in 10.0 mi West 18.4 mph - N/A   Clear
9:55 PM 73.4 °F 41.0 °F 31% 29.96 in 10.0 mi West 13.8 mph 20.7 mph N/A   Clear
10:15 PM 73.4 °F 41.0 °F 31% 29.95 in 10.0 mi West 15.0 mph 21.9 mph N/A   Clear
10:35 PM 71.6 °F 41.0 °F 33% 29.94 in 10.0 mi West 19.6 mph 25.3 mph N/A   Clear
10:55 PM 71.6 °F 42.8 °F 35% 29.95 in 10.0 mi West 19.6 mph 24.2 mph N/A   Clear
11:15 PM 71.6 °F 42.8 °F 35% 29.95 in 10.0 mi West 11.5 mph - N/A   Clear
11:35 PM 71.6 °F 41.0 °F 33% 29.95 in 10.0 mi West 13.8 mph 18.4 mph N/A   Clear
11:55 PM 71.6 °F 41.0 °F 33% 29.95 in 10.0 mi WSW 12.7 mph 28.8 mph N/A   Clear